1998-067RC

Last updated on Tue Feb 08 2022 00:02:05 GMT+0000 (Coordinated Universal Time)

1 45259U 98067RC 22038.31215922 .11340002 12518-4 59706-3 0 9997 2 45259 51.6082 197.0775 0006010 301.4076 58.6363 16.42437998112304

Satellite not in orbit